Location: Sungai Bunut
(2.6333°N, 113.7333°E)
Time: 10:34:55
(UTC+00:00)

SR - Pass Details

Date: 10 December 2023
Orbit: 574 x 867 km, 66.7° (Epoch: 01 March)

Event Time Altitude Azimuth Distance (km) Brightness Sun altitude
Rises 00:41:01 0° 185° (S) 3,005 ? 31.4°
Reaches altitude 10° 00:43:22 10° 177° (S) 2,136 ? 31.9°
Maximum altitude 00:47:54 39° 108° (ESE) 1,089 ? 32.9°
Drops below altitude 10° 00:52:48 10° 40° (NE) 2,313 ? 34.0°
Sets 00:55:26 0° 33° (NNE) 3,286 ? 34.6°
